Weather History for Sturgeon Bay, WI

Change the Weather History Date:

Sunday, October 7, 2012

  Actual Average Record
Temperature  
Mean Temperature 42 °F -  
Max Temperature 48 °F 58 °F 82 °F (2007)
Min Temperature 37 °F 41 °F 26 °F (2001)
Degree Days  
Heating Degree Days 22    
Moisture  
Dew Point 22 °F    
Average Humidity 46    
Maximum Humidity 61    
Minimum Humidity 30    
Precipitation  
Precipitation 0.00 in - - ()
Sea Level Pressure  
Sea Level Pressure 30.08 in    
Wind  
Wind Speed 9 mph (West)    
Max Wind Speed 15 mph    
Max Gust Speed 21 mph    
Visibility 10 miles    
Events      
Averages and records for this station are not official NWS values.
T = Trace of Precipitation, MM = Missing Value Source: NWS Daily Summary

Daily Weather History Graph

Daily Weather History Graph

Search for Another Location

Airport:

Trip Planner

Search our weather history database for the weather conditions in past years. The results will help you decide how hot, cold, wet, or windy it might be!

Date:

Astronomy

Oct. 07, 2012 Rise Set
Actual Time 6:55 AM CDT 6:18 PM CDT
Civil Twilight 6:26 AM CDT 6:47 PM CDT
Nautical Twilight 5:52 AM CDT 7:21 PM CDT
Astronomical Twilight 5:18 AM CDT 7:55 PM CDT
Moon 11:19 PM CDT (10/7) 1:43 PM CDT (10/7)
Length of Visible Light 12h 21m
Length of Day
11h 22m
Waning Gibbous, 56% of the Moon is Illuminated
Oct 7
Waning Gibbous
Oct 8
Last Quarter
Oct 15
New
Oct 21
First Quarter
Oct 29
Full

Hourly Weather History & Observations

Time (CDT) Temp. Windchill Dew Point Humidity Pressure Visibility Wind Dir Wind Speed Gust Speed Precip Events Conditions
12:15 AM 41.0 °F 35.8 °F 24.8 °F 53% 30.14 in 10.0 mi North 8.1 mph - N/A   Overcast
12:35 AM 41.0 °F 33.9 °F 24.8 °F 53% 30.14 in 10.0 mi North 12.7 mph - N/A   Overcast
12:55 AM 41.0 °F 33.5 °F 24.8 °F 53% 30.13 in 10.0 mi North 13.8 mph - N/A   Overcast
1:35 AM 41.0 °F 35.2 °F 26.6 °F 57% 30.13 in 10.0 mi NNW 9.2 mph - N/A   Overcast
1:55 AM 41.0 °F 35.2 °F 26.6 °F 57% 30.13 in 10.0 mi NNW 9.2 mph - N/A   Overcast
2:15 AM 41.0 °F 34.7 °F 26.6 °F 57% 30.13 in 10.0 mi NNW 10.4 mph - N/A   Overcast
2:35 AM 41.0 °F 34.3 °F 26.6 °F 57% 30.13 in 10.0 mi NW 11.5 mph 16.1 mph N/A   Overcast
2:55 AM 39.2 °F 35.0 °F 26.6 °F 61% 30.12 in 10.0 mi NW 5.8 mph - N/A   Overcast
3:15 AM 39.2 °F 32.5 °F 26.6 °F 61% 30.11 in 10.0 mi NW 10.4 mph - N/A   Mostly Cloudy
3:35 AM 39.2 °F 33.6 °F 26.6 °F 61% 30.11 in 10.0 mi NW 8.1 mph - N/A   Scattered Clouds
3:55 AM 39.2 °F 34.2 °F 26.6 °F 61% 30.11 in 10.0 mi NW 6.9 mph - N/A   Mostly Cloudy
4:15 AM 39.2 °F 34.2 °F 24.8 °F 56% 30.11 in 10.0 mi NW 6.9 mph - N/A   Overcast
4:35 AM 39.2 °F 34.2 °F 24.8 °F 56% 30.11 in 10.0 mi NNW 6.9 mph - N/A   Overcast
4:55 AM 39.2 °F 35.0 °F 26.6 °F 61% 30.11 in 10.0 mi NW 5.8 mph - N/A   Overcast
5:15 AM 39.2 °F 34.2 °F 26.6 °F 61% 30.11 in 10.0 mi NW 6.9 mph - N/A   Overcast
5:35 AM 39.2 °F 34.2 °F 26.6 °F 61% 30.11 in 10.0 mi NW 6.9 mph - N/A   Overcast
5:55 AM 39.2 °F 33.6 °F 26.6 °F 61% 30.11 in 10.0 mi NW 8.1 mph - N/A   Overcast
6:15 AM 39.2 °F 34.2 °F 26.6 °F 61% 30.11 in 10.0 mi NW 6.9 mph - N/A   Mostly Cloudy
6:35 AM 39.2 °F 33.6 °F 23.0 °F 52% 30.10 in 10.0 mi NW 8.1 mph - N/A   Mostly Cloudy
6:55 AM 39.2 °F 33.6 °F 21.2 °F 49% 30.11 in 10.0 mi NW 8.1 mph - N/A   Scattered Clouds
7:15 AM 39.2 °F 34.2 °F 24.8 °F 56% 30.11 in 10.0 mi NW 6.9 mph - N/A   Clear
7:35 AM 39.2 °F 35.0 °F 24.8 °F 56% 30.12 in 10.0 mi WNW 5.8 mph - N/A   Partly Cloudy
7:55 AM 39.2 °F 34.2 °F 26.6 °F 61% 30.12 in 10.0 mi NW 6.9 mph - N/A   Scattered Clouds
8:15 AM 42.8 °F 36.6 °F 26.6 °F 53% 30.12 in 10.0 mi WNW 11.5 mph - N/A   Overcast
8:35 AM 42.8 °F 36.6 °F 26.6 °F 53% 30.12 in 10.0 mi WNW 11.5 mph - N/A   Overcast
8:55 AM 42.8 °F 36.2 °F 26.6 °F 53% 30.12 in 10.0 mi NW 12.7 mph - N/A   Overcast
9:15 AM 42.8 °F 38.0 °F 26.6 °F 53% 30.13 in 10.0 mi NW 8.1 mph - N/A   Overcast
9:55 AM 42.8 °F 38.6 °F 28.4 °F 57% 30.12 in 10.0 mi NW 6.9 mph - N/A   Overcast
12:15 PM 44.6 °F 40.2 °F 19.4 °F 37% 30.10 in 10.0 mi West 8.1 mph - N/A   Overcast
12:35 PM 44.6 °F 39.7 °F 21.2 °F 39% 30.10 in 10.0 mi WSW 9.2 mph - N/A   Overcast
12:55 PM 44.6 °F 38.4 °F 21.2 °F 39% 30.10 in 10.0 mi West 12.7 mph - N/A   Overcast
1:15 PM 44.6 °F 40.7 °F 21.2 °F 39% 30.08 in 10.0 mi SW 6.9 mph - N/A   Scattered Clouds
1:35 PM 46.4 °F 40.7 °F 19.4 °F 34% 30.07 in 10.0 mi WSW 12.7 mph 18.4 mph N/A   Partly Cloudy
1:55 PM 48.2 °F - 19.4 °F 32% 30.07 in 10.0 mi WSW 12.7 mph - N/A   Clear
2:15 PM 48.2 °F - 19.4 °F 32% 30.06 in 10.0 mi WNW 6.9 mph 19.6 mph N/A   Partly Cloudy
2:35 PM 48.2 °F - 19.4 °F 32% 30.06 in 10.0 mi WSW 11.5 mph 16.1 mph N/A   Clear
2:55 PM 48.2 °F - 19.4 °F 32% 30.05 in 10.0 mi SSW 11.5 mph 16.1 mph N/A   Clear
3:15 PM 48.2 °F - 19.4 °F 32% 30.05 in 10.0 mi West 10.4 mph 16.1 mph N/A   Clear
3:35 PM 48.2 °F - 19.4 °F 32% 30.04 in 10.0 mi West 12.7 mph - N/A   Clear
3:55 PM 48.2 °F - 19.4 °F 32% 30.03 in 10.0 mi SSW 15.0 mph - N/A   Clear
4:15 PM 48.2 °F - 17.6 °F 30% 30.03 in 10.0 mi SW 8.1 mph - N/A   Partly Cloudy
4:35 PM 48.2 °F - 17.6 °F 30% 30.03 in 10.0 mi WSW 12.7 mph 20.7 mph N/A   Scattered Clouds
4:55 PM 48.2 °F - 17.6 °F 30% 30.02 in 10.0 mi SW 13.8 mph 17.3 mph N/A   Partly Cloudy
5:15 PM 48.2 °F - 17.6 °F 30% 30.03 in 10.0 mi WSW 10.4 mph - N/A   Clear
5:35 PM 48.2 °F - 17.6 °F 30% 30.02 in 10.0 mi SW 10.4 mph - N/A   Clear
5:55 PM 46.4 °F 41.9 °F 17.6 °F 32% 30.03 in 10.0 mi WSW 9.2 mph - N/A   Clear
6:15 PM 44.6 °F 40.7 °F 17.6 °F 34% 30.02 in 10.0 mi SW 6.9 mph - N/A   Clear
6:35 PM 44.6 °F 40.7 °F 17.6 °F 34% 30.02 in 10.0 mi SSW 6.9 mph - N/A   Clear
6:55 PM 42.8 °F 38.6 °F 17.6 °F 36% 30.02 in 10.0 mi SSW 6.9 mph - N/A   Clear
7:15 PM 42.8 °F 38.6 °F 15.8 °F 34% 30.03 in 10.0 mi SSW 6.9 mph - N/A   Clear
7:55 PM 39.2 °F 34.2 °F 17.6 °F 42% 30.03 in 10.0 mi SSW 6.9 mph - N/A   Clear
8:15 PM 39.2 °F 34.2 °F 17.6 °F 42% 30.03 in 10.0 mi SSW 6.9 mph - N/A   Clear
8:35 PM 39.2 °F 35.0 °F 17.6 °F 42% 30.04 in 10.0 mi SSW 5.8 mph - N/A   Clear
8:55 PM 37.4 °F 32.1 °F 17.6 °F 45% 30.04 in 10.0 mi South 6.9 mph - N/A   Clear
9:15 PM 37.4 °F 31.4 °F 17.6 °F 45% 30.04 in 10.0 mi South 8.1 mph - N/A   Clear
9:35 PM 37.4 °F 31.4 °F 17.6 °F 45% 30.04 in 10.0 mi SSW 8.1 mph - N/A   Clear
9:55 PM 37.4 °F 31.4 °F 17.6 °F 45% 30.04 in 10.0 mi South 8.1 mph - N/A   Clear
10:15 PM 37.4 °F 31.4 °F 17.6 °F 45% 30.04 in 10.0 mi South 8.1 mph - N/A   Clear
10:35 PM 37.4 °F 31.4 °F 17.6 °F 45% 30.04 in 10.0 mi South 8.1 mph - N/A   Clear
10:55 PM 37.4 °F 32.1 °F 17.6 °F 45% 30.04 in 10.0 mi SSW 6.9 mph - N/A   Clear
11:15 PM 37.4 °F 32.1 °F 17.6 °F 45% 30.04 in 10.0 mi SSW 6.9 mph - N/A   Clear
11:35 PM 37.4 °F 31.4 °F 19.4 °F 48% 30.03 in 10.0 mi South 8.1 mph - N/A   Clear
11:55 PM 37.4 °F 31.4 °F 19.4 °F 48% 30.03 in 10.0 mi South 8.1 mph - N/A   Clear